This is the latest recevied weather packets stored in our database for station/object WX7FGZ-6. If no packets are shown the sender has not sent any weather packets the latest 10 day(s).
| Time | Temp. | Humidity | Pressure | Rain* | Wind** | Luminosity | Snow |
|---|---|---|---|---|---|---|---|
| 1777651598 | 2.22° C | 45% | 1020.5 hPa | 0 mm | - | - | - |
| 1777651298 | 2.22° C | 45% | 1020.8 hPa | 0 mm | - | - | - |
| 1777651190 | 2.22° C | 45% | 1021.1 hPa | 0 mm | - | - | - |
| 1777650998 | 2.22° C | 45% | 1021.1 hPa | 0 mm | - | - | - |
| 1777650698 | 2.22° C | 43% | 1021.3 hPa | 0 mm | - | - | - |
| 1777650398 | 2.22° C | 45% | 1021.6 hPa | 0 mm | - | - | - |
| 1777650097 | 2.22° C | 43% | 1021.5 hPa | 0 mm | - | - | - |
| 1777650000 | 2.22° C | 42% | 1021.6 hPa | 0 mm | - | - | - |
| 1777649797 | 2.22° C | 42% | 1021.6 hPa | 0 mm | - | - | - |
| 1777649671 | 1.67° C | 44% | 1021.7 hPa | 0 mm | - | - | - |
| 1777649498 | 1.67° C | 44% | 1021.7 hPa | 0 mm | - | - | - |
| 1777649448 | 1.67° C | 42% | 1021.6 hPa | 0 mm | - | - | - |
| 1777649198 | 1.67° C | 42% | 1021.6 hPa | 0 mm | - | - | - |
| 1777648898 | 1.67° C | 41% | 1021.5 hPa | 0 mm | - | - | - |
| 1777648368 | 1.67° C | 42% | 1021.2 hPa | 0 mm | - | - | - |
| 1777648134 | 1.67° C | 42% | 1021.2 hPa | 0 mm | - | - | - |
| 1777647834 | 1.67° C | 42% | 1021 hPa | 0 mm | - | - | - |
| 1777647533 | 1.11° C | 44% | 1020.1 hPa | 0 mm | - | - | - |
| 1777646933 | 0.56° C | 45% | 1019.2 hPa | 0 mm | - | - | - |
| 1777646633 | 0° C | 47% | 1018.8 hPa | 0 mm | - | - | - |
| 1777646236 | -0.56° C | 46% | 1018 hPa | 0 mm | - | - | - |
| 1777645936 | -1.11° C | 49% | 1017.7 hPa | 0 mm | - | - | - |
| 1777645636 | -1.11° C | 49% | 1017.7 hPa | 0 mm | - | - | - |
| 1777645336 | -1.11° C | 49% | 1017.6 hPa | 0 mm | - | - | - |
| 1777645037 | -1.67° C | 49% | 1017.7 hPa | 0 mm | - | - | - |
* Rain latest hour (hover to see other rain measurements)
** Current wind speed in m/s (hover to see current wind gust speed)